TimeMDT,TemperatureF,Dew PointF,Humidity,Sea Level PressureIn,VisibilityMPH,Wind Direction,Wind SpeedMPH,Gust SpeedMPH,PrecipitationIn,Events,Conditions,WindDirDegrees,DateUTC
12:53 AM,57.9,32.0,37,30.14,10.0,SW,4.6,-,N/A,,Clear,230,2012-09-21 06:53:00
1:53 AM,55.0,33.1,43,30.14,10.0,West,3.5,-,N/A,,Clear,260,2012-09-21 07:53:00
2:53 AM,51.8,30.2,44,30.18,9.0,Calm,Calm,-,N/A,,Clear,0,2012-09-21 08:53:00
3:53 AM,52.0,32.0,47,30.15,10.0,Calm,Calm,-,N/A,,Clear,0,2012-09-21 09:53:00
4:53 AM,51.1,33.1,50,30.16,9.0,Calm,Calm,-,N/A,,Clear,0,2012-09-21 10:53:00
5:53 AM,46.0,30.9,56,30.19,10.0,Calm,Calm,-,N/A,,Clear,0,2012-09-21 11:53:00
6:53 AM,46.9,30.9,54,30.19,9.0,Calm,Calm,-,N/A,,Clear,0,2012-09-21 12:53:00
7:53 AM,46.0,30.9,56,30.22,7.0,Calm,Calm,-,N/A,,Clear,0,2012-09-21 13:53:00
8:53 AM,53.1,33.1,47,30.22,6.0,Calm,Calm,-,N/A,,Haze,0,2012-09-21 14:53:00
9:53 AM,55.9,34.0,44,30.22,7.0,West,3.5,-,N/A,,Clear,280,2012-09-21 15:53:00
10:53 AM,60.1,36.0,41,30.21,7.0,Calm,Calm,-,N/A,,Clear,0,2012-09-21 16:53:00
11:53 AM,66.0,34.0,30,30.19,7.0,ESE,3.5,-,N/A,,Clear,120,2012-09-21 17:53:00
12:53 PM,71.1,34.0,26,30.17,6.0,Variable,3.5,-,N/A,,Haze,0,2012-09-21 18:53:00
1:53 PM,75.0,36.0,24,30.14,6.0,Calm,Calm,-,N/A,,Haze,0,2012-09-21 19:53:00
2:53 PM,78.1,33.1,19,30.10,6.0,Calm,Calm,-,N/A,,Haze,0,2012-09-21 20:53:00
3:53 PM,81.0,34.0,18,30.07,7.0,North,5.8,-,N/A,,Clear,350,2012-09-21 21:53:00
4:53 PM,82.0,33.1,17,30.06,8.0,NNE,4.6,-,N/A,,Clear,30,2012-09-21 22:53:00
5:53 PM,81.0,30.0,16,30.06,10.0,North,3.5,-,N/A,,Clear,350,2012-09-21 23:53:00
6:53 PM,77.0,30.0,18,30.06,10.0,Calm,Calm,-,N/A,,Clear,0,2012-09-22 00:53:00
7:53 PM,69.1,33.1,26,30.09,10.0,West,6.9,-,N/A,,Clear,280,2012-09-22 01:53:00
8:53 PM,68.0,32.0,26,30.09,10.0,WSW,8.1,-,N/A,,Clear,250,2012-09-22 02:53:00
9:53 PM,64.9,32.0,29,30.09,10.0,WSW,9.2,-,N/A,,Clear,250,2012-09-22 03:53:00
10:53 PM,64.0,33.1,31,30.10,10.0,WSW,9.2,-,N/A,,Clear,250,2012-09-22 04:53:00
11:53 PM,62.1,33.1,34,30.10,10.0,WSW,9.2,-,N/A,,Clear,240,2012-09-22 05:53:00